This is the latest recevied weather packets stored in our database for station/object KD6VEX-1. If no packets are shown the sender has not sent any weather packets the latest 10 day(s).
| Time | Temp. | Humidity | Pressure | Rain* | Wind** | Luminosity | Snow |
|---|---|---|---|---|---|---|---|
| 1778053421 | 11.11° C | 89% | 1018.2 hPa | 0 mm | - | - | - |
| 1778053121 | 11.11° C | 89% | 1018.2 hPa | 0 mm | - | - | - |
| 1778052821 | 11.11° C | 89% | 1018.1 hPa | 0 mm | - | - | - |
| 1778052521 | 10.56° C | 90% | 1018.1 hPa | 0 mm | - | - | - |
| 1778052221 | 10.56° C | 90% | 1018.1 hPa | 0 mm | - | - | - |
| 1778051921 | 10.56° C | 89% | 1018 hPa | 0 mm | - | - | - |
| 1778051321 | 10° C | 89% | 1018 hPa | 0 mm | - | - | - |
| 1778050121 | 10.56° C | 88% | 1017.8 hPa | 0 mm | - | - | - |
| 1778049766 | 10.56° C | 87% | 1017.8 hPa | 0 mm | - | - | - |
| 1778049466 | 10.56° C | 87% | 1017.8 hPa | 0 mm | - | - | - |
| 1778049166 | 10.56° C | 87% | 1017.7 hPa | 0 mm | - | - | - |
| 1778048866 | 10.56° C | 88% | 1017.7 hPa | 0 mm | - | - | - |
| 1778048546 | 11.11° C | 87% | 1017.6 hPa | 0 mm | - | - | - |
| 1778048246 | 11.11° C | 86% | 1017.7 hPa | 0 mm | - | - | - |
| 1778047945 | 11.11° C | 86% | 1017.7 hPa | 0 mm | - | - | - |
| 1778047646 | 11.11° C | 85% | 1017.6 hPa | 0 mm | - | - | - |
| 1778047346 | 11.11° C | 85% | 1017.6 hPa | 0 mm | - | - | - |
| 1778047046 | 11.67° C | 85% | 1017.6 hPa | 0 mm | - | - | - |
| 1778046746 | 11.67° C | 85% | 1017.6 hPa | 0 mm | - | - | - |
| 1778046446 | 11.67° C | 85% | 1017.6 hPa | 0 mm | - | - | - |
| 1778046146 | 11.67° C | 84% | 1017.5 hPa | 0 mm | - | - | - |
| 1778045846 | 11.67° C | 84% | 1017.6 hPa | 0 mm | - | - | - |
| 1778045546 | 11.67° C | 84% | 1017.6 hPa | 0 mm | - | - | - |
| 1778045246 | 11.67° C | 84% | 1017.3 hPa | 0 mm | - | - | - |
| 1778044946 | 12.22° C | 83% | 1017.3 hPa | 0 mm | - | - | - |
* Rain latest hour (hover to see other rain measurements)
** Current wind speed in m/s (hover to see current wind gust speed)